Location: Kellogg
(38.0159°N, 90.0546°W)
Time: 22:03:12
(UTC+00:00)

Vanguard 1 - Pass Details

Date: 18 September 2024
Orbit: 648 x 3825 km, 34.3° (Epoch: 12 October)

Event Time Altitude Azimuth Distance (km) Brightness Sun altitude
Rises 23:20:04 0° 274° (W) 3,832 15.4 7.5°
Reaches altitude 10° 23:23:59 10° 256° (WSW) 2,482 14.4 6.8°
Maximum altitude 23:27:30 17° 215° (SW) 1,765 12.0 6.1°
Drops below altitude 10° 23:30:31 10° 172° (S) 2,069 11.7 5.5°
Sets 23:33:22 0° 151° (SSE) 2,939 12.3 4.9°
